This is the latest recevied weather packets stored in our database for station/object 9A3SWO. If no packets are shown the sender has not sent any weather packets the latest 10 day(s).
| Time | Temp. | Humidity | Pressure | Rain* | Wind** | Luminosity | Snow |
|---|---|---|---|---|---|---|---|
| 1788029307 | 25.56° C | 47% | 1017.1 hPa | - | - | - | - |
| 1788028708 | 25.56° C | 47% | 1017.1 hPa | - | - | - | - |
| 1788028107 | 25.56° C | 46% | 1017 hPa | - | - | - | - |
| 1788027509 | 26.11° C | 45% | 1016.9 hPa | - | - | - | - |
| 1788026908 | 26.11° C | 45% | 1016.7 hPa | - | - | - | - |
| 1788026307 | 26.67° C | 45% | 1016.6 hPa | - | - | - | - |
| 1788025707 | 26.67° C | 44% | 1016.5 hPa | - | - | - | - |
| 1788025107 | 27.22° C | 43% | 1016.5 hPa | - | - | - | - |
| 1788024507 | 27.22° C | 43% | 1016.3 hPa | - | - | - | - |
| 1788023907 | 27.22° C | 43% | 1016.4 hPa | - | - | - | - |
| 1788023307 | 27.78° C | 42% | 1016.4 hPa | - | - | - | - |
| 1788022709 | 28.33° C | 42% | 1016.4 hPa | - | - | - | - |
| 1788022107 | 28.33° C | 42% | 1016.3 hPa | - | - | - | - |
| 1788021507 | 28.33° C | 42% | 1016.2 hPa | - | - | - | - |
| 1788020908 | 28.33° C | 42% | 1016.3 hPa | - | - | - | - |
| 1788020307 | 28.33° C | 42% | 1016.5 hPa | - | - | - | - |
| 1788019707 | 28.33° C | 41% | 1016.5 hPa | - | - | - | - |
| 1788019108 | 27.78° C | 41% | 1016.6 hPa | - | - | - | - |
| 1788018507 | 27.78° C | 40% | 1016.7 hPa | - | - | - | - |
| 1788017907 | 27.78° C | 39% | 1016.6 hPa | - | - | - | - |
| 1788017307 | 27.78° C | 39% | 1016.6 hPa | - | - | - | - |
| 1788016707 | 27.22° C | 39% | 1016.6 hPa | - | - | - | - |
| 1788016106 | 27.22° C | 39% | 1016.6 hPa | - | - | - | - |
| 1788015507 | 27.22° C | 40% | 1016.7 hPa | - | - | - | - |
| 1788014906 | 27.22° C | 40% | 1016.7 hPa | - | - | - | - |
* Rain since midnight (hover to see other rain measurements)
** Current wind speed in m/s (hover to see current wind gust speed)